Weather History for Smyrna, TN

Change the Weather History Date:

Thursday, November 22, 2012

  Actual Average Record
Temperature  
Mean Temperature 50 °F -  
Max Temperature 68 °F 55 °F 75 °F (2010)
Min Temperature 32 °F 40 °F 15 °F (2008)
Degree Days  
Heating Degree Days 15    
Moisture  
Dew Point 37 °F    
Average Humidity 91    
Maximum Humidity 100    
Minimum Humidity 37    
Precipitation  
Precipitation 0.00 in - - ()
Sea Level Pressure  
Sea Level Pressure 30.22 in    
Wind  
Wind Speed 1 mph (SSW)    
Max Wind Speed 10 mph    
Max Gust Speed -    
Visibility 4 miles    
Events Fog    
Averages and records for this station are not official NWS values.
T = Trace of Precipitation, MM = Missing Value Source: NWS Daily Summary

Daily Weather History Graph

Daily Weather History Graph

Search for Another Location

Airport:

Trip Planner

Search our weather history database for the weather conditions in past years. The results will help you decide how hot, cold, wet, or windy it might be!

Date:

Astronomy

Nov. 22, 2012 Rise Set
Actual Time 6:30 AM CST 4:34 PM CST
Civil Twilight 6:02 AM CST 5:02 PM CST
Nautical Twilight 5:31 AM CST 5:33 PM CST
Astronomical Twilight 5:00 AM CST 6:04 PM CST
Moon 1:11 PM CST (11/22) 12:58 AM CST (11/22)
Length of Visible Light 10h 59m
Length of Day
10h 04m
Waxing Gibbous, 71% of the Moon is Illuminated
Nov 22
Waxing Gibbous
Nov 28
Full
Dec 6
Last Quarter
Dec 13
New
Dec 19
First Quarter

Hourly Weather History & Observations

Time (CST) Temp. Windchill Dew Point Humidity Pressure Visibility Wind Dir Wind Speed Gust Speed Precip Events Conditions
12:05 AM 39.2 °F - 39.2 °F 100% 30.22 in 3.0 mi Calm Calm - N/A   Clear
12:21 AM 37.4 °F - 37.4 °F 100% 30.22 in 1.8 mi Calm Calm - N/A   Clear
12:33 AM 39.2 °F - 39.2 °F 100% 30.22 in 3.0 mi Calm Calm - N/A   Clear
12:56 AM 37.9 °F - 36.9 °F 96% 30.21 in 3.0 mi Calm Calm - N/A   Clear
12:58 AM 37.4 °F - 37.4 °F 100% 30.22 in 1.8 mi Calm Calm - N/A   Clear
1:00 AM 37.4 °F - 37.4 °F 100% 30.22 in 0.8 mi Calm Calm - N/A   Clear
1:07 AM 37.4 °F - 37.4 °F 100% 30.22 in 0.5 mi Calm Calm - N/A Fog Fog
1:11 AM 37.4 °F - 37.4 °F 100% 30.23 in 1.2 mi Calm Calm - N/A   Clear
1:21 AM 37.4 °F - 37.4 °F 100% 30.23 in 0.8 mi Calm Calm - N/A   Clear
1:25 AM 37.4 °F - 37.4 °F 100% 30.23 in 0.2 mi Calm Calm - N/A Fog Fog
1:39 AM 37.4 °F - 37.4 °F 100% 30.23 in 0.8 mi Calm Calm - N/A   Clear
1:56 AM 36.9 °F - 36.9 °F 100% 30.22 in 1.2 mi Calm Calm - N/A   Clear
2:25 AM 37.4 °F - 37.4 °F 100% 30.23 in 2.0 mi Calm Calm - N/A   Clear
2:35 AM 37.4 °F - 37.4 °F 100% 30.23 in 1.2 mi Calm Calm - N/A   Clear
2:45 AM 37.4 °F - 37.4 °F 100% 30.23 in 2.0 mi Calm Calm - N/A   Clear
2:56 AM 36.0 °F - 36.0 °F 100% 30.22 in 0.8 mi Calm Calm - N/A   Clear
3:06 AM 35.6 °F - 35.6 °F 100% 30.23 in 1.2 mi Calm Calm - N/A   Clear
3:18 AM 35.6 °F - 35.6 °F 100% 30.23 in 2.0 mi Calm Calm - N/A   Clear
3:37 AM 37.4 °F - 37.4 °F 100% 30.23 in 1.5 mi Calm Calm - N/A   Clear
3:39 AM 37.4 °F - 35.6 °F 93% 30.23 in 1.0 mi Calm Calm - N/A   Clear
3:41 AM 35.6 °F - 35.6 °F 100% 30.23 in 0.5 mi Calm Calm - N/A Fog Fog
3:56 AM 34.9 °F - 34.9 °F 100% 30.22 in 0.5 mi Calm Calm - N/A Fog Fog
4:07 AM 35.6 °F - 35.6 °F 100% 30.23 in 0.8 mi Calm Calm - N/A   Clear
4:19 AM 35.6 °F - 35.6 °F 100% 30.24 in 0.2 mi Calm Calm - N/A Fog Fog
4:40 AM 33.8 °F - 33.8 °F 100% 30.23 in 0.8 mi Calm Calm - N/A   Clear
4:43 AM 33.8 °F - 33.8 °F 100% 30.23 in 1.2 mi Calm Calm - N/A   Clear
4:49 AM 33.8 °F - 33.8 °F 100% 30.23 in 0.8 mi Calm Calm - N/A   Clear
4:56 AM 34.0 °F - 34.0 °F 100% 30.23 in 0.5 mi Calm Calm - N/A Fog Fog
5:19 AM 33.8 °F - 33.8 °F 100% 30.24 in 1.0 mi Calm Calm - N/A   Clear
5:21 AM 33.8 °F - 33.8 °F 100% 30.24 in 1.8 mi Calm Calm - N/A   Clear
5:23 AM 33.8 °F - 33.8 °F 100% 30.24 in 4.0 mi Calm Calm - N/A   Clear
5:26 AM 33.8 °F - 33.8 °F 100% 30.24 in 1.5 mi Calm Calm - N/A   Clear
5:28 AM 33.8 °F - 33.8 °F 100% 30.24 in 0.8 mi Calm Calm - N/A   Clear
5:33 AM 33.8 °F - 33.8 °F 100% 30.25 in 0.2 mi Calm Calm - N/A Fog Fog
5:39 AM 33.8 °F - 33.8 °F 100% 30.25 in 0.8 mi Calm Calm - N/A   Clear
5:41 AM 33.8 °F - 33.8 °F 100% 30.25 in 1.2 mi Calm Calm - N/A   Clear
5:43 AM 33.8 °F - 33.8 °F 100% 30.25 in 2.0 mi Calm Calm - N/A   Clear
5:48 AM 33.8 °F - 33.8 °F 100% 30.25 in 1.2 mi Calm Calm - N/A   Clear
5:56 AM 34.0 °F - 34.0 °F 100% 30.24 in 0.2 mi Calm Calm - N/A Fog Fog
6:05 AM 33.8 °F - 33.8 °F 100% 30.25 in 0.8 mi Calm Calm - N/A   Clear
6:21 AM 33.8 °F - 33.8 °F 100% 30.25 in 1.2 mi Calm Calm - N/A   Clear
6:25 AM 33.8 °F - 33.8 °F 100% 30.25 in 0.8 mi Calm Calm - N/A   Clear
6:35 AM 33.8 °F - 33.8 °F 100% 30.25 in 3.0 mi Calm Calm - N/A Fog Clear
6:56 AM 32.9 °F - 32.9 °F 100% 30.25 in 3.0 mi Calm Calm - N/A Fog Clear
7:56 AM 38.8 °F 36.5 °F 38.8 °F 100% 30.26 in 4.0 mi ESE 3.5 mph - N/A   Clear
8:56 AM 46.9 °F - 43.9 °F 89% 30.25 in 7.0 mi Calm Calm - N/A   Clear
9:56 AM 54.9 °F - 45.9 °F 72% 30.25 in 10.0 mi Calm Calm - N/A   Clear
10:56 AM 63.0 °F - 47.8 °F 58% 30.22 in 10.0 mi Variable 5.8 mph - N/A   Clear
11:56 AM 65.8 °F - 46.9 °F 50% 30.18 in 10.0 mi SSW 9.2 mph - N/A   Clear
12:56 PM 66.9 °F - 45.0 °F 45% 30.16 in 10.0 mi SW 10.4 mph - N/A   Clear
1:56 PM 68.9 °F - 45.0 °F 42% 30.15 in 10.0 mi SW 8.1 mph - N/A   Clear
2:56 PM 68.0 °F - 41.0 °F 37% 30.14 in 10.0 mi SW 8.1 mph - N/A   Clear
3:56 PM 64.9 °F - 41.9 °F 43% 30.15 in 10.0 mi SW 4.6 mph - N/A   Clear
4:56 PM 54.9 °F - 41.9 °F 62% 30.14 in 10.0 mi South 3.5 mph - N/A   Clear
5:56 PM 50.9 °F - 41.9 °F 71% 30.14 in 10.0 mi Calm Calm - N/A   Clear
6:56 PM 48.9 °F - 41.9 °F 77% 30.15 in 10.0 mi SSW 4.6 mph - N/A   Clear
7:56 PM 50.0 °F - 41.9 °F 74% 30.14 in 10.0 mi Calm Calm - N/A   Clear
8:56 PM 48.9 °F - 41.0 °F 74% 30.15 in 10.0 mi SSW 4.6 mph - N/A   Clear
9:56 PM 45.9 °F - 37.9 °F 74% 30.15 in 10.0 mi Calm Calm - N/A   Clear
10:56 PM 43.0 °F - 38.8 °F 85% 30.14 in 10.0 mi Calm Calm - N/A   Clear
11:56 PM 43.9 °F 42.3 °F 39.9 °F 86% 30.15 in 10.0 mi SE 3.5 mph - N/A   Clear